Yaogan 46

operational
NORAD ID: 66313 Int'l Des: 2025-250 Owner: ZLZB Country: CN Constellation: yaogan
MEOELLIPTICAL

Yaogan 46について

説明を読み込み中...

リアルタイム位置

3D地球を読み込み中...

次回通過

高度履歴

Altitude vs Time

uPlot chart will show altitude changes over time

軌道要素

1 66313U 25250A 25355.36533306 -.00000014 00000-0 00000-0 0 9998
2 66313 20.0432 87.4420 0002102 247.4053 112.5790 5.31214516 2642
Epoch: Dec 21, 2025 • Age: 15 hours

現在のステータス

高度 7496.3 km
速度 5.36 km/s
衛星直下点 16.17°N, 125.46°E
打ち上げ日 Nov 3, 2025
運用期間 0.1 years
タイプ military

技術仕様

分類 Payload
質量 4000.00 kg
乾燥質量 2500.00 kg
総質量 5000.00 kg
長さ 5.00 m
直径 2.50 m
スパン 30.00 m
形状 Box + 2 Pan
製造者 CAST
バスタイプ YG46
フェーズステータス In Orbit
所有者/国 ZLZB/CN

大規模コンステレーション

Loading constellations...